Seattle Boeing, WA

4:44 AM PDT on September 20, 2017 (GMT -0700)
Boeing Field-King County International

Weather History for KBFI - January, 2014

Change the Weather History Date:

Monday, January 13, 2014

  Actual Average Record
Temperature  
Mean Temperature 52 °F -  
Max Temperature 53 °F 46 °F 56 °F (1986)
Min Temperature 51 °F 37 °F 11 °F (1950)
Degree Days  
Heating Degree Days 13    
Growing Degree Days 2 (Base 50)    
Moisture  
Dew Point 45 °F    
Average Humidity 76    
Maximum Humidity 80    
Minimum Humidity 71    
Precipitation  
Precipitation 0.01 in - - ()
Sea Level Pressure  
Sea Level Pressure 30.49 in    
Wind  
Wind Speed 14 mph (South)    
Max Wind Speed 24 mph    
Max Gust Speed 40 mph    
Visibility 10 miles    
Events      
Averages and records for this station are not official NWS values.
T = Trace of Precipitation, MM = Missing Value Source: NWS Daily Summary

Daily Weather History Graph

Daily Weather History Graph

Search for Another Location

Airport or City:

Trip Planner

Search our weather history database for the weather conditions in past years. The results will help you decide how hot, cold, wet, or windy it might be!

Date:

Astronomy

Jan. 13, 2014 Rise Set
Actual Time 7:53 AM PST 4:42 PM PST
Civil Twilight 7:18 AM PST 5:17 PM PST
Nautical Twilight 6:40 AM PST 5:56 PM PST
Astronomical Twilight 6:03 AM PST 6:32 PM PST
Moon 3:03 PM PST (1/13) 5:45 AM PST (1/13)
Length of Visible Light 9h 58m
Length of Day
8h 49m
Waxing Gibbous, 95% of the Moon is Illuminated
Jan 13
Waxing Gibbous
Jan 15
Full
Jan 23
Last Quarter
Jan 30
New
Feb 6
First Quarter

Hourly Weather History & Observations

Time (PST) Temp. Dew Point Humidity Pressure Visibility Wind Dir Wind Speed Gust Speed Precip Events Conditions
12:53 AM 52.0 °F 45.0 °F 77% 30.32 in 10.0 mi South 19.6 mph 29.9 mph N/A   Overcast
1:53 AM 52.0 °F 44.1 °F 74% 30.32 in 10.0 mi South 24.2 mph 35.7 mph 0.01 in   Overcast
2:53 AM 52.0 °F 44.1 °F 74% 30.35 in 10.0 mi South 15.0 mph 31.1 mph N/A   Mostly Cloudy
3:53 AM 52.0 °F 44.1 °F 74% 30.36 in 10.0 mi South 17.3 mph 29.9 mph N/A   Overcast
4:53 AM 52.0 °F 44.1 °F 74% 30.37 in 10.0 mi South 16.1 mph 40.3 mph N/A   Mostly Cloudy
5:53 AM 52.0 °F 43.0 °F 71% 30.38 in 10.0 mi SSW 13.8 mph 35.7 mph N/A   Mostly Cloudy
6:53 AM 52.0 °F 44.1 °F 74% 30.41 in 10.0 mi South 15.0 mph 28.8 mph N/A   Overcast
7:53 AM 52.0 °F 44.1 °F 74% 30.43 in 10.0 mi South 17.3 mph 25.3 mph N/A   Overcast
8:53 AM 52.0 °F 44.1 °F 74% 30.44 in 10.0 mi South 15.0 mph 24.2 mph N/A   Overcast
9:53 AM 52.0 °F 44.1 °F 74% 30.47 in 10.0 mi SSW 16.1 mph 28.8 mph N/A   Overcast
10:53 AM 52.0 °F 45.0 °F 77% 30.48 in 10.0 mi South 9.2 mph 23.0 mph N/A   Overcast
11:53 AM 53.1 °F 45.0 °F 74% 30.49 in 10.0 mi SSW 8.1 mph - N/A   Overcast
12:53 PM 53.1 °F 46.0 °F 77% 30.50 in 10.0 mi South 5.8 mph - N/A   Overcast
1:53 PM 53.1 °F 46.0 °F 77% 30.51 in 10.0 mi South 6.9 mph - N/A   Overcast
2:53 PM 53.1 °F 46.0 °F 77% 30.52 in 10.0 mi SE 5.8 mph - N/A   Overcast
3:53 PM 53.1 °F 46.0 °F 77% 30.54 in 10.0 mi SSE 9.2 mph - N/A   Overcast
4:53 PM 53.1 °F 46.0 °F 77% 30.55 in 10.0 mi SSE 6.9 mph - N/A   Mostly Cloudy
5:53 PM 52.0 °F 46.0 °F 80% 30.56 in 10.0 mi SSE 8.1 mph - N/A   Mostly Cloudy
6:53 PM 53.1 °F 46.0 °F 77% 30.56 in 10.0 mi South 6.9 mph - N/A   Overcast
7:53 PM 52.0 °F 46.0 °F 80% 30.57 in 10.0 mi SSE 5.8 mph - N/A   Overcast
8:53 PM 52.0 °F 46.0 °F 80% 30.58 in 10.0 mi South 6.9 mph - N/A   Overcast
9:35 PM 51.8 °F 44.6 °F 76% 30.60 in 10.0 mi SSE 8.1 mph - N/A   Overcast
9:53 PM 52.0 °F 45.0 °F 77% 30.61 in 10.0 mi SSE 8.1 mph - N/A   Overcast
10:53 PM 52.0 °F 45.0 °F 77% 30.62 in 10.0 mi SSE 6.9 mph - N/A   Overcast
11:53 PM 52.0 °F 46.0 °F 80% 30.63 in 10.0 mi SSE 8.1 mph - N/A   Overcast